Location: ??
(35.3149°N, 139.6204°E)
Time: 11:09:48
(UTC+00:00)

Cosmos 1346 Rocket - Pass Details

Date: 03 August 2024
Orbit: 503 x 516 km, 81.2° (Epoch: 09 September)

Event Time Altitude Azimuth Distance (km) Brightness Sun altitude
Exits shadow 18:00:58 27° 154° (SSE) 1,000 4.0 -20.3°
Maximum altitude 18:02:39 47° 95° (E) 675 3.5 -20.0°
Drops below altitude 10° 18:06:18 10° 21° (NNE) 1,722 6.2 -19.5°
Sets 18:08:28 0° 15° (NNE) 2,609 7.2 -19.1°
